Terug naar catalogus

LUCH 5B

ActiefCommunicatieGEO
NORAD 38977·PAYLOAD·🇷🇺 Russia

Gelanceerd Nov 2, 2012 vanaf Baikonur Cosmodrome

Loading…

TLE

VersSource: Space-Track

Epoch: Sep 14, 2026, 05:10 UTC

1 38977U 12061A   26257.21545071 -.00000144  00000-0  00000-0 0  9991
2 38977  10.6725  48.9745 0005938 164.6356 200.8161  1.00269868 50508

Volg LUCH 5B in realtime met AllMySat

Download on the App Store